User: anonymous   Login
Location: Charleston
(38.3500°N, 81.6330°W)
Time: 15:53:19
(UTC-05:00)
Language:

Cosmos 1812 Rocket - Orbit

View from above orbital plane
View from above orbital plane
View from above satellite
View from above satellite

Ground track
Ground track

The orbit data is extracted from the following two-line orbital elements,

1 17296U 87003B   15060.20048135  .00000465  00000-0  54249-4 0  9991
2 17296 082.5272 089.3163 0020787 105.1470 322.1965 14.82877880518774
Epoch (UTC): 01 March 2015 04:48:41
Eccentricity: 0.0020787
inclination: 82.5272°
perigee height: 606 km
apogee height: 635 km
right ascension of ascending node: 89.3163°
argument of perigee: 105.1470°
revolutions per day: 14.82877880
mean anomaly at epoch: 322.1965°
orbit number at epoch: 51877

The dashed part of the orbit path shows where the satellite is in the earth's shadow,  

DLR